Regional Weather Roundup
Issued by NWS Cleveland, OH

Home | Current Version | Previous Version | Text Only | Print | Product List | Glossary Off
Versions: 1 2 3 4 5 6 7 8 9 10 11 12 13 14 15 16 17 18 19 20 21 22 23 24 25 26 27 28 29 30 31 32 33 34 35 36 37 38 39 40 41 42 43 44 45 46 47 48 49 50

000
ASUS41 KCLE 050310
RWRCLE
OHIO REGIONAL WEATHER ROUNDUP
NATIONAL WEATHER SERVICE CLEVELAND, OH
1100 PM EDT TUE AUG 04 2015

NOTE: "FAIR" INDICATES FEW OR NO CLOUDS BELOW 12,000 FEET WITH NO
SIGNIFICANT WEATHER AND/OR OBSTRUCTIONS TO VISIBILITY.

OHZ001>008-015>018-024>027-034-035-043-044-050400-
   NORTHWEST OHIO

CITY           SKY/WX    TMP DP  RH WIND       PRES   REMARKS
DEFIANCE       CLOUDY    68  60  75 CALM      30.02R
FINDLAY        PTCLDY    68  60  75 W5        30.01R
TOLEDO EXPRESS MOCLDY    66  58  75 W7        30.00R
TOLEDO EXEC    PTCLDY    68  56  65 W6        30.01R
LIMA           CLEAR     65  60  84 CALM      30.02R
$$

OHZ009>014-019>023-028>033-038-089-050400-
   NORTHEAST OHIO

CITY           SKY/WX    TMP DP  RH WIND       PRES   REMARKS
CLE-HOPKINS    MOCLDY    68  59  73 SW5       30.00R
CLE-LAKEFRONT  PTCLDY    73  58  59 SW8       29.97R
CUY CO. ARPT   PTCLDY    72  61  68 SW7       29.98R
LORAIN-ELYRIA  MOCLDY    65  61  87 W6        30.00R
ASHTABULA      CLEAR     64  58  80 CALM      29.98R
AKRON-CANTON   MOCLDY    70  56  61 W5        30.00R
WOOSTER        PTCLDY    64  57  78 W5        30.02R
MANSFIELD      CLEAR     67  58  72 W5        30.02R
YOUNGSTOWN     MOCLDY    64  56  75 CALM      29.99R
$$

OHZ042-051>053-060>062-070>072-077>081-050400-
  SOUTHWEST OHIO

CITY           SKY/WX    TMP DP  RH WIND       PRES   REMARKS
CINC-COVINGTON CLOUDY    72  60  66 CALM      30.04R
CINC-LUNKEN    CLOUDY    68  65  90 NE3       30.03S
HAMILTON       CLOUDY    71  67  87 CALM      30.04R
DAYTON         MOCLDY    66  61  84 W6        30.05R
WRIGHT-PAT AFB MOCLDY    68  61  79 S3        30.03R
DAYTON GENERAL CLOUDY    71  60  68 CALM      30.03R
WILMINGTON     CLOUDY    65  61  87 SW5       30.04R
$$

OHZ036-037-039>041-045>050-054>059-063>069-073>076-082>088-050400-
  CENTRAL AND SOUTHEAST OHIO

CITY           SKY/WX    TMP DP  RH WIND       PRES   REMARKS
COLUMBUS       MOCLDY    72  56  57 N3        30.00S
OSU AIRPORT    CLEAR     68  58  70 W3        30.01S
BOLTON FIELD   PTCLDY    65  62  91 CALM      30.02S
RICKENBACK AFB PTCLDY    70  60  69 NW5       30.01S
NEWARK         PTCLDY    65  61  87 CALM      30.01R
MARION         CLEAR     69  59  70 W5        30.02R
LANCASTER      PTCLDY    62  59  90 CALM      30.01S
ZANESVILLE     PTCLDY    68  58  70 CALM      30.01R
NEW PHILLY     PTCLDY    63  60  90 CALM      30.01R
$$


USA.gov is the U.S. government's official web portal to all federal, state and local government web resources and services.